Theta_e
302 296 294 298 298 298 297 295 294 296 299 297 296 297 299 302 304 304 306 308 310 311 318 322 324 325 333 335 358 359 356 358 357 357 354 353 351 356 353 358 356 357 357 356
298 295 300 301 300 298 297 294 293 297 299 298 296 296 299 301 302 305 307 308 309 312 314 318 323 325 327 336 359 359 354 356 356 358 356 356 352 353 353 355 357 358 357 358
294 297 301 299 298 296 296 293 294 293 297 298 297 294 297 301 302 304 307 309 311 311 313 316 319 326 325 329 355 358 357 357 358 357 358 359 356 355 353 354 355 357 356 355
297 301 298 297 296 297 292 298 297 294 293 288 297 285 294 298 299 301 304 308 309 312 314 317 318 324 327 328 357 357 356 355 356 358 355 357 350 345 350 350 352 353 356 346
295 296 296 295 297 299 294 299 297 296 294 293 293 288 292 297 296 299 303 307 309 313 313 315 317 322 327 352 357 356 356 353 355 355 354 354 351 353 350 354 354 344 340 340
298 302 300 298 300 300 301 297 296 295 293 285 291 289 290 293 296 299 303 307 309 311 314 317 321 322 324 355 356 357 356 351 352 353 350 349 348 351 350 350 347 341 339 341
297 297 302 302 296 299 297 293 285 283 284 283 293 288 291 297 299 301 303 307 309 312 313 315 318 322 327 353 354 354 354 351 351 352 351 348 347 349 348 348 343 338 337 340
290 288 297 300 297 295 295 293 286 279 281 284 291 285 290 300 302 303 305 308 310 312 313 314 317 321 346 352 352 352 352 349 348 351 352 353 352 351 349 350 342 339 338 335
289 289 299 299 299 297 294 290 296 289 289 286 288 292 298 300 300 301 303 306 308 310 312 314 318 322 346 351 350 350 350 349 349 352 353 352 351 352 344 341 341 338 334 330
294 286 295 297 299 298 295 298 289 291 281 280 286 288 288 295 297 300 301 303 308 311 312 314 318 323 348 349 350 348 348 347 351 351 351 349 345 342 340 338 335 333 329 327
294 288 289 293 291 290 293 292 293 293 290 283 282 286 298 297 300 301 301 305 310 312 312 315 319 333 348 349 348 346 347 350 349 348 347 341 338 337 336 333 331 328 327 324
295 289 286 288 295 297 295 293 294 287 286 289 288 288 300 302 303 305 305 308 310 313 314 318 325 345 342 345 342 343 346 346 346 345 341 336 334 333 332 329 328 326 324 324
293 288 283 286 293 294 292 294 295 295 294 288 285 288 301 302 304 306 306 308 311 316 316 318 336 341 334 339 342 343 344 342 342 340 335 332 331 330 327 327 325 325 323 322
297 286 285 281 286 291 288 291 294 293 288 289 289 290 296 299 301 303 305 308 310 314 318 334 325 322 320 330 337 337 336 336 334 332 329 328 327 326 326 324 323 322 322 320
292 286 288 290 291 291 291 290 291 291 292 288 291 291 295 299 301 303 306 308 310 313 329 330 327 321 323 328 329 329 328 329 328 326 324 323 324 325 324 321 321 320 320 319
292 286 290 288 292 292 290 292 293 293 293 293 294 293 300 303 304 304 305 309 311 317 324 325 326 326 324 326 327 325 325 325 323 321 321 322 322 321 319 319 319 319 318 317
285 286 287 285 293 292 286 291 293 294 296 296 292 297 301 302 303 304 307 307 312 321 322 323 322 321 321 324 326 324 323 323 321 320 320 320 319 318 318 318 318 318 317 316
285 285 287 284 290 282 289 298 297 296 298 300 300 301 302 303 304 307 310 310 311 318 318 319 319 319 320 322 322 323 322 321 320 319 318 318 318 317 318 317 317 317 317 315
294 287 285 285 285 290 292 292 291 291 293 300 300 301 302 304 305 305 309 317 317 317 318 319 320 319 320 321 322 321 321 322 320 318 318 317 317 316 316 316 315 315 314 312
295 293 286 286 286 282 286 292 298 299 287 295 295 299 302 301 298 297 305 310 311 314 317 318 320 319 320 321 322 320 320 319 317 317 316 317 317 316 315 316 315 315 313 310
287 288 286 287 288 288 289 292 299 287 287 292 296 302 302 299 300 303 307 309 311 313 315 318 320 320 321 322 320 318 317 315 316 317 317 316 317 315 315 315 315 312 310 309
285 283 285 286 284 282 292 292 284 290 293 295 301 301 300 300 301 303 305 307 309 310 313 316 315 316 318 318 318 315 314 315 316 315 314 314 314 314 314 314 314 313 312 310
285 286 283 285 285 292 292 290 294 296 300 300 300 300 301 299 300 303 304 307 308 311 312 314 314 313 314 316 316 312 313 314 314 313 312 313 313 313 314 313 313 312 314 310
291 290 286 287 290 290 291 293 295 299 300 300 300 300 300 298 299 301 303 305 306 308 309 311 310 310 310 314 313 313 313 313 312 311 310 306 299 300 301 298 295 294 300 301
288 287 287 287 291 290 292 292 295 298 300 299 300 300 300 300 299 300 301 304 306 308 309 309 308 308 309 311 312 312 312 312 308 303 300 297 295 292 289 289 292 289 289 293
286 285 285 285 288 288 290 293 297 296 297 299 298 298 299 300 300 301 301 303 305 306 307 307 308 309 309 310 310 309 309 307 303 300 298 295 293 291 290 288 288 289 289 289
Wind_Speed
16 15 15 21 18 19 24 20 24 18 21 21 19 21 25 22 22 25 24 25 25 25 20 17 19 16 6 5 17 17 17 15 12 10 9 8 8 5 6 6 11 9 5 6
15 16 21 18 25 24 22 20 24 23 22 20 19 25 23 22 23 20 21 22 25 23 24 21 19 18 14 8 15 19 18 17 12 10 9 8 9 6 6 8 8 7 6 6
20 20 17 20 17 18 22 19 23 25 23 23 22 24 23 22 23 25 22 25 22 25 21 21 22 17 18 14 18 19 19 18 15 13 9 6 7 5 7 7 6 5 7 6
18 17 18 15 22 21 24 22 23 22 21 18 20 19 22 23 24 24 26 23 23 21 22 21 22 15 20 17 20 18 17 17 14 16 9 8 7 9 7 7 5 4 7 14
21 21 22 24 23 17 17 16 18 20 19 20 27 15 17 19 24 25 25 24 27 19 21 18 24 20 18 21 20 20 20 21 16 14 9 6 7 6 7 8 11 13 11 11
25 22 23 22 22 21 19 15 21 20 18 18 26 20 21 21 25 24 24 28 25 21 16 16 16 19 19 23 20 19 19 17 13 13 12 5 8 8 9 10 9 8 7 7
19 21 20 20 21 17 13 17 10 8 10 17 17 12 18 23 25 29 24 27 23 17 17 18 18 18 19 24 22 19 21 22 19 16 15 16 13 10 12 11 10 12 7 7
11 8 6 2 16 10 15 12 11 12 11 12 6 11 12 26 23 24 24 24 22 21 19 22 21 18 25 23 23 22 22 21 21 17 17 17 19 10 11 11 11 10 7 8
8 7 12 16 7 2 8 11 18 20 17 16 17 26 17 19 18 23 24 23 29 29 28 28 24 18 25 25 23 22 23 21 23 20 16 14 14 11 12 17 13 11 12 10
6 13 13 17 8 17 21 18 5 9 7 16 16 11 8 13 9 17 22 24 29 30 29 27 23 19 24 24 22 21 21 23 22 20 17 14 16 16 14 14 13 14 14 13
4 5 9 15 9 19 12 12 12 9 9 8 14 6 9 16 14 16 16 21 16 27 29 25 21 17 25 23 24 21 23 24 21 20 19 20 17 17 14 13 14 14 14 12
7 6 12 22 27 25 21 17 16 6 6 12 10 5 10 16 18 12 24 22 16 26 25 22 19 25 24 24 23 23 25 23 21 20 20 20 20 20 14 13 15 14 14 12
2 4 8 11 2 15 10 17 18 15 15 18 13 8 6 12 15 13 13 14 21 7 20 22 22 23 21 19 22 24 24 21 20 22 20 19 24 18 14 15 15 14 14 12
11 4 12 13 20 16 11 14 13 11 10 13 10 11 15 17 16 20 19 19 14 11 8 24 21 18 12 8 16 14 18 21 21 23 21 22 18 17 15 15 16 14 13 13
3 6 13 21 26 24 24 20 21 21 18 15 16 5 7 11 15 16 18 23 19 17 24 21 21 16 20 11 16 23 16 19 19 22 24 21 18 17 16 18 15 14 14 13
3 6 12 24 22 18 22 21 21 22 21 17 17 11 14 8 10 16 17 21 26 8 21 23 22 21 18 20 15 19 23 21 21 23 21 19 17 18 18 16 15 15 14 13
2 4 5 9 14 9 3 10 18 17 18 15 15 12 10 5 7 15 11 16 18 22 20 22 21 21 18 17 19 22 20 22 23 22 19 18 18 19 18 16 16 15 14 13
4 2 3 10 14 2 3 21 19 18 8 12 4 5 4 4 5 12 13 15 20 25 19 21 19 20 18 17 19 22 21 21 23 21 19 18 19 19 17 17 16 14 12 12
6 1 4 5 5 4 9 19 13 11 9 16 14 2 3 4 3 5 18 11 7 19 17 19 20 22 19 19 19 22 21 20 20 20 19 19 19 18 17 16 15 13 11 12
12 11 2 5 6 7 6 24 20 17 3 19 20 19 8 3 4 3 11 14 13 15 19 21 23 21 19 16 20 22 21 19 19 19 19 19 18 17 17 16 14 13 12 11
7 5 5 8 4 5 14 23 19 3 7 21 23 8 7 4 7 5 2 11 13 18 20 22 22 18 16 16 20 22 21 20 19 20 20 19 18 17 16 14 12 12 11 10
5 8 5 6 6 5 23 14 6 9 23 20 9 12 15 15 14 4 5 16 17 22 20 21 23 17 16 18 21 22 22 20 20 20 20 18 16 13 12 14 11 11 9 8
1 3 5 5 4 10 12 12 14 19 4 11 8 10 14 17 11 6 10 17 18 21 20 18 20 21 19 19 18 22 21 20 20 19 20 18 17 14 12 10 8 6 5 5
1 3 3 5 4 13 7 15 16 13 10 11 11 12 14 16 12 9 10 15 17 16 18 19 22 22 21 19 19 19 19 19 20 21 18 16 17 16 15 12 11 10 9 10
3 5 5 4 6 10 6 14 15 10 9 12 12 13 15 16 12 11 11 14 15 17 17 18 21 21 21 19 18 17 18 18 19 19 17 16 15 16 15 14 10 11 12 11
2 3 3 3 7 6 6 13 13 10 9 10 13 14 14 15 12 11 12 10 13 17 18 19 21 21 21 19 19 18 17 18 19 17 14 12 12 12 12 12 13 18 17 18
Wind_Direction
256 235 238 260 263 294 292 284 280 269 252 270 284 292 287 281 235 232 227 242 225 227 236 236 219 235 184 200 145 154 148 148 148 160 189 168 162 183 147 117 140 152 171 148
262 253 261 250 288 285 280 286 282 279 278 275 253 247 262 269 271 259 236 233 242 214 219 230 239 202 179 182 150 149 165 155 159 168 192 170 165 162 146 132 138 157 146 121
277 278 293 277 252 268 270 264 273 286 290 289 279 272 260 268 260 265 253 244 236 232 209 210 228 180 181 187 155 158 158 165 156 180 196 154 155 149 125 133 140 133 131 151
283 287 274 289 289 261 245 250 265 276 283 273 281 275 275 273 244 241 254 230 241 223 226 200 218 208 177 183 154 152 155 163 161 187 191 158 158 152 136 139 125 131 91 77
284 284 282 274 266 285 287 295 284 282 268 279 262 256 267 247 242 258 235 254 226 226 211 220 198 204 184 152 149 156 164 158 171 166 158 150 146 139 144 121 111 84 83 87
275 276 273 264 261 252 269 267 262 267 265 257 255 259 256 249 258 242 222 241 220 219 224 239 208 200 169 145 154 158 163 153 160 154 130 162 132 130 129 134 117 113 109 114
287 288 265 248 260 259 302 247 265 254 230 253 257 276 273 270 241 258 218 229 219 217 216 233 231 181 167 149 158 156 167 160 164 168 173 139 127 170 137 135 125 118 121 129
292 309 2 53 247 263 232 265 244 264 264 286 205 224 237 240 245 244 245 226 205 204 221 232 228 197 154 151 162 163 166 162 166 167 159 157 154 164 144 151 136 122 113 106
316 275 338 309 282 120 290 263 263 277 270 265 270 276 229 293 233 233 252 240 209 205 202 221 223 197 153 159 166 164 165 158 164 154 145 145 150 140 104 115 119 122 116 106
342 285 281 292 313 256 267 269 260 215 271 267 265 314 306 300 268 249 238 255 214 192 192 210 209 189 155 160 155 160 157 163 156 145 144 134 116 113 114 115 119 111 101 105
290 226 283 311 260 266 277 274 235 259 249 273 292 284 308 330 316 328 276 281 202 177 195 203 194 165 146 153 148 165 160 162 148 144 134 127 120 116 98 109 110 107 105 104
329 288 286 278 274 266 256 246 253 233 262 257 276 248 339 332 326 301 307 251 280 181 195 174 172 144 143 152 154 163 164 151 145 137 128 120 114 105 116 119 110 109 108 104
244 246 296 297 210 28 288 264 243 256 267 267 272 283 321 322 316 309 314 253 260 235 184 167 134 150 148 155 159 162 156 142 129 122 118 113 97 113 127 116 114 109 105 101
210 240 239 262 278 293 283 297 291 281 263 273 271 314 320 325 339 327 312 322 276 241 192 112 113 117 120 243 142 145 137 120 121 117 119 99 112 121 126 119 104 105 103 100
161 265 248 258 268 270 269 260 260 261 261 269 285 209 256 294 312 304 302 305 308 269 120 116 122 133 117 66 104 102 81 104 119 110 108 111 126 130 118 104 105 101 97 97
185 262 290 289 279 282 263 251 248 250 254 264 265 259 229 290 310 297 291 323 320 230 122 116 119 115 104 119 119 107 130 119 109 103 106 126 123 110 103 103 101 97 93 90
189 282 301 279 322 331 329 286 264 256 252 250 250 271 149 238 328 292 337 317 304 115 120 115 115 113 110 111 122 113 111 116 110 112 124 118 114 106 104 102 97 93 91 91
162 224 251 281 309 298 250 22 7 329 270 273 253 156 144 15 349 298 321 266 249 115 111 108 112 109 107 107 110 115 116 115 114 119 118 117 107 102 99 98 97 97 96 91
210 202 273 283 290 289 39 3 341 327 314 9 349 231 102 87 335 357 330 94 109 110 112 113 112 110 111 115 117 111 110 108 113 111 111 104 101 104 106 102 99 98 93 82
318 210 223 303 289 13 5 338 323 296 256 348 339 303 125 107 150 332 335 101 96 100 114 113 109 110 111 119 113 111 110 112 107 107 103 103 104 104 102 100 99 101 99 96
328 350 266 308 300 106 356 336 326 4 338 309 298 248 111 121 95 62 285 101 112 104 109 109 106 110 117 121 113 107 106 104 104 102 100 98 96 96 98 101 94 90 95 99
340 321 338 335 341 357 6 343 14 301 293 299 61 100 109 95 73 74 129 112 111 106 106 104 99 103 109 108 108 106 103 103 100 99 99 100 100 97 98 100 103 107 109 114
329 332 314 322 332 346 327 302 299 302 337 67 70 81 99 89 83 96 112 111 104 104 104 103 104 103 95 97 102 103 102 106 107 103 99 99 100 102 103 95 103 115 126 108
263 69 258 313 90 338 336 336 335 347 28 75 72 82 90 94 88 88 90 96 97 100 102 105 102 101 100 98 98 100 108 110 106 103 93 73 66 67 68 60 50 43 27 55
17 312 310 262 313 326 354 343 334 8 23 80 83 86 95 95 88 93 89 95 100 103 103 104 104 103 104 107 107 106 109 109 99 89 88 83 77 75 71 56 53 64 45 49
311 299 304 311 324 290 317 336 344 28 20 75 92 95 89 92 90 90 87 91 99 102 105 104 106 108 110 111 106 103 102 99 100 97 93 93 93 91 90 88 80 53 66 67